Valentine, NE

3:20 PM CST on December 11, 2019 (GMT -0600)
Miller Field

Weather History for KVTN - October, 2019

Change the Weather History Date:

Wednesday, October 23, 2019

  Actual Average Record
Temperature  
Mean Temperature 38 °F 46 °F  
Max Temperature 52 °F 60 °F 84 °F (1973)
Min Temperature 25 °F 31 °F 5 °F (1917)
Degree Days  
Heating Degree Days 26 19  
Month to date heating degree days 440 348  
Since 1 July heating degree days 493 533  
Cooling Degree Days 0 0  
Month to date cooling degree days 0 1  
Year to date cooling degree days 930 818  
Moisture  
Dew Point 32 °F    
Average Humidity 75    
Maximum Humidity 89    
Minimum Humidity 52    
Precipitation  
Precipitation 0.02 in 0.03 in 1.42 in (1906)
Month to date precipitation 1.17 1.00  
Year to date precipitation 28.07 18.75  
Snow  
Snow T in 0.00 in 10.00 in (1906)
Month to date snowfall 1.9 0.8  
Since 1 July snowfall 1.9 1.5  
Since 1 September snowfall 1.9 1.5  
Snow Depth 0.00 in    
Sea Level Pressure  
Sea Level Pressure 30.05 in    
Wind  
Wind Speed 11 mph ()    
Max Wind Speed 28 mph    
Max Gust Speed 40 mph    
Visibility 9.5 miles    
Events Snow    
T = Trace of Precipitation, MM = Missing Value Source: Averaged Metar Reports

Daily Weather History Graph

Daily Weather History Graph

Search for Another Location

Airport or City:

Astronomy

Oct. 23, 2019 Rise Set
Actual Time 8:04 AM CDT 6:47 PM CDT
Civil Twilight 7:36 AM CDT 7:16 PM CDT
Nautical Twilight 7:03 AM CDT 7:49 PM CDT
Astronomical Twilight 6:30 AM CDT 8:22 PM CDT
Moon 2:15 AM CDT (10/23) 4:48 PM CDT (10/23)
Length of Visible Light 11h 40m
Length of Day
10h 42m
Waning Crescent, 26% of the Moon is Illuminated
Oct 23
Waning Crescent
Oct 27
New
Nov 4
First Quarter
Nov 12
Full
Nov 19
Last Quarter

Hourly Weather History & Observations

Time (CDT) Temp. Windchill Dew Point Humidity Pressure Visibility Wind Dir Wind Speed Gust Speed Precip Events Conditions
12:52 AM 39.9 °F 35.8 °F 35.1 °F 83% 29.77 in 10.0 mi SSW 5.8 mph - N/A   Clear
1:52 AM 39.0 °F - 35.1 °F 86% 29.76 in 10.0 mi Calm Calm - N/A   Partly Cloudy
2:52 AM 37.0 °F - 34.0 °F 89% 29.76 in 10.0 mi Calm Calm - N/A   Overcast
3:52 AM 46.9 °F - 39.9 °F 77% 29.75 in 10.0 mi NW 19.6 mph 26.5 mph 0.01 in   Overcast
4:52 AM 46.0 °F 39.9 °F 41.0 °F 83% 29.78 in 10.0 mi WNW 13.8 mph - 0.01 in   Overcast
5:52 AM 45.0 °F 38.5 °F 39.0 °F 80% 29.81 in 10.0 mi WNW 13.8 mph - N/A   Partly Cloudy
6:52 AM 43.0 °F 36.8 °F 37.9 °F 82% 29.86 in 10.0 mi West 11.5 mph - N/A   Clear
7:52 AM 42.1 °F 37.7 °F 36.0 °F 79% 29.89 in 10.0 mi West 6.9 mph - N/A   Clear
8:52 AM 42.1 °F 36.6 °F 37.0 °F 82% 29.90 in 10.0 mi West 9.2 mph - N/A   Partly Cloudy
9:52 AM 46.9 °F - 37.0 °F 68% 29.91 in 10.0 mi WNW 12.7 mph - N/A   Scattered Clouds
10:52 AM 50.0 °F - 36.0 °F 59% 29.92 in 10.0 mi WNW 19.6 mph 29.9 mph N/A   Overcast
11:52 AM 51.1 °F - 36.0 °F 56% 29.94 in 10.0 mi WNW 18.4 mph 27.6 mph N/A   Mostly Cloudy
12:52 PM 50.0 °F - 34.0 °F 54% 29.96 in 10.0 mi WNW 23.0 mph 39.1 mph 0.00 in   Overcast
1:52 PM 48.0 °F - 35.1 °F 61% 29.99 in 10.0 mi NNW 19.6 mph 31.1 mph N/A   Overcast
2:14 PM 45.0 °F 36.2 °F 36.0 °F 71% 29.97 in 10.0 mi North 24.2 mph 33.4 mph N/A   Overcast
2:44 PM 37.9 °F 26.3 °F 32.0 °F 79% 30.01 in 10.0 mi North 26.5 mph 36.8 mph N/A   Overcast
2:52 PM 37.9 °F 27.1 °F 30.9 °F 76% 30.08 in 10.0 mi North 23.0 mph 35.7 mph N/A   Overcast
3:18 PM 37.0 °F 26.7 °F 30.9 °F 79% 30.05 in 5.0 mi North 19.6 mph 31.1 mph 0.00 in Snow Light Snow
3:43 PM 36.0 °F 25.3 °F 28.9 °F 76% 30.09 in 9.0 mi North 19.6 mph 34.5 mph 0.00 in   Overcast
3:52 PM 36.0 °F 27.1 °F 28.9 °F 76% 30.14 in 9.0 mi North 13.8 mph 33.4 mph 0.00 in   Overcast
4:29 PM 36.0 °F 25.0 °F 28.0 °F 73% 30.14 in 10.0 mi North 20.7 mph 29.9 mph 0.00 in   Overcast
4:52 PM 36.0 °F 24.7 °F 28.0 °F 73% 30.20 in 5.0 mi NNW 21.9 mph 31.1 mph 0.00 in Snow Light Snow
5:52 PM 36.0 °F 26.0 °F 27.0 °F 70% 30.24 in 10.0 mi NNW 17.3 mph 29.9 mph 0.00 in   Overcast
6:52 PM 35.1 °F 27.9 °F 28.9 °F 78% 30.29 in 6.0 mi NW 9.2 mph - 0.00 in Snow Light Snow
7:03 PM 35.1 °F 26.4 °F 28.9 °F 78% 30.24 in 9.0 mi NNW 12.7 mph - 0.00 in   Overcast
7:23 PM 35.1 °F 27.9 °F 28.9 °F 78% 30.25 in 10.0 mi NNW 9.2 mph - 0.00 in   Overcast
7:52 PM 36.0 °F 29.0 °F 28.0 °F 73% 30.33 in 10.0 mi NNW 9.2 mph - 0.00 in   Overcast
8:52 PM 35.1 °F 26.9 °F 25.0 °F 67% 30.35 in 10.0 mi NNW 11.5 mph - N/A   Overcast
9:52 PM 33.1 °F 24.9 °F 24.1 °F 70% 30.33 in 10.0 mi North 10.4 mph - N/A   Clear
10:52 PM 30.0 °F 22.4 °F 21.9 °F 72% 30.36 in 10.0 mi NNW 8.1 mph - N/A   Clear
11:52 PM 25.0 °F 16.3 °F 21.0 °F 85% 30.43 in 10.0 mi West 8.1 mph - N/A   Clear